www.pogodaiklimat.ru

Погода и климат >> Архив погоды >> Финляндия >> Хельсинки


АРХИВ ПОГОДЫ в Хельсинки

Время (UTC), дата Ветер
(напр.,м/с)
 
Видим.   Явления Облачность Т
(С)
Тd
(С)
f
(%)
Тe
(С)
Тes
(С)
Комфортность P
(гПа)
Po
(гПа)
Тmin
(С)
Tmax
(С)
R
(мм)
R24
(мм)
S
(см)
13 14.07 СЗ 3-6
{6}
50 км 10/0 1500 м
[]
+18.3 +4.5 40 +19 +22 по сезону 1011.9 1005.5
14 14.07 СВ 2-8
{8}
50 км 1/0 2000 м
[]
+17.9 +6.0 46 +18 +24 прохладно 1011.7 1005.4
15 14.07 С 4-5
{6}
50 км 6/0 1500 м
[Ci fib]
+19.4 +4.5 37 +20 +22 по сезону 1011.5 1005.2
16 14.07 С 2 50 км 10/10 1500 м
[]
+18.4 +4.9 41 +19 +19 по сезону 1011.5 1005.2
17 14.07 Ю 3 50 км 10/10 1500 м
[]
+17.5 +7.5 52 +18 +18 по сезону 1011.5 1005.1
18 14.07 Ю 4-5
{6}
50 км 6/1 1500 м
[Sc diur, vesp Ac As Ci fib]
+16.1 +8.4 60 +15 +16 прохладно 1011.7 1005.3 +14.3 +19.8
19 14.07 ЮЗ 3-5
{6}
50 км 4/0 1500 м
[]
+15.6 +8.1 61 +15 +15 по сезону 1011.6 1005.3
20 14.07 50 км 3/1 1500 м
[]
+13.9 +8.8 71 1011.9 1005.5
21 14.07 ЮЗ 3-3
{4}
50 км 8/1 1500 м
[Ac As Ci fib]
+13.5 +10.5 82 +12 +12 прохладно 1012.0 1005.5
22 14.07 З 3-4
{4}
50 км 9/8 1500 м
[]
+13.8 +11.2 84 +13 +13 тепло 1011.8 1005.3
23 14.07 З 2 50 км 10/10 2000 м
[]
+12.9 +11.7 92 +12 +12 по сезону 1011.5 1005.1
00 15.07 ЮЗ 1-1
{3}
50 км 9/0 1500 м
[Ac As]
+13.3 +12.2 93 +13 +13 по сезону 1011.4 1005.0
01 15.07 С 1 50 км 9/9 2000 м
[]
+13.3 +12.0 92 +13 +13 по сезону 1011.3 1004.9
02 15.07 СВ 1-2
{2}
50 км 6/0 2000 м
[]
+12.3 +11.8 97 +12 +12 прохладно 1011.1 1004.7
03 15.07 ЮВ 1-2
{3}
40 км 8/1 1500 м
[Ac trans Ci sp]
+13.0 +11.6 91 +13 +13 по сезону 1010.8 1004.4
04 15.07 В 1-1
{2}
50 км 8/0 1500 м
[]
+13.6 +12.1 91 +14 +15 прохладно 1010.7 1004.3
05 15.07 Ю 2 50 км 5/5 200 м
[]
+14.6 +13.2 91 +14 +16 прохладно 1010.7 1004.3
06 15.07 Ю 1-3
{3}
50 км ясно +16.9 +12.1 73 +18 +25 по сезону 1010.3 1004.0 +11.7 +17.0
07 15.07 ЮЗ 2-2
{3}
50 км 4/4 600 м
[]
+17.5 +11.1 66 +18 +24 по сезону 1010.1 1003.8
08 15.07 Ю 2-5
{5}
50 км 8/8 1000 м
[]
+19.1 +10.5 57 +21 +25 комфорт 1009.8 1003.5
09 15.07 Ю 4-6
{7}
50 км 6/6 600 м
[Ac und]
+19.7 +9.8 53 +21 +24 комфорт 1009.7 1003.4
10 15.07 Ю 5 50 км 9/9 2000 м
[]
+19.9 +9.1 50 +21 +22 комфорт 1009.5 1003.2
11 15.07 Ю 5 45 км 5/4 1500 м
[]
+19.9 +11.5 58 +21 +25 комфорт 1009.3 1003.0
12 15.07 Ю 5-6
{8}
50 км осадки на расстоянии {ливн. осадки} 9/1 600 м
[Ac cuf]
+18.5 +9.0 54 +19 +21 прохладно 1009.5 1003.2
13 15.07 Ю 4 50 км 10/10
[]
+18.4 +10.1 58 +19 +19 прохладно 1009.4 1003.1
14 15.07 Ю 3-5
{7}
50 км слаб. ливневой дождь 9/9 2000 м
[]
+18.1 +10.4 61 +18 +19 прохладно 1009.3 1003.0 0.2
15 15.07 Ю 4-6
{7}
50 км {ливн. осадки} 6/1 1500 м
[Ac cuf Ci fib]
+20.1 +8.9 48 +21 +24 комфорт 1008.7 1002.4
16 15.07 Ю 5 50 км 5/5
[]
+19.7 +6.3 42 +20 +21 тепло 1008.6 1002.3
17 15.07 Ю 5 50 км 9/9
[]
+18.2 +8.3 52 +18 +18 по сезону 1008.5 1002.2
18 15.07 Ю 5-6
{7}
50 км {ливн. осадки} 9/1 1500 м
[Cu hum Ac As]
+17.1 +7.7 54 +16 +17 прохладно 1008.1 1001.8 +16.7 +20.6 0.2
19 15.07 ЮВ 4 50 км 9/9 2000 м
[]
+16.5 +8.7 60 +16 +16 по сезону 1007.9 1001.6
20 15.07 ЮВ 4 50 км 10/10
[]
+15.9 +12.5 80 +15 +15 по сезону 1007.6 1001.3
21 15.07 ЮВ 4-5
{5}
50 км слаб. ливневой дождь 9/9 1000 м
[Ac cuf]
+15.9 +13.1 83 +15 +15 по сезону 1007.4 1001.0
22 15.07 ЮВ 3-4
{6}
50 км в посл. час дождь 6/6
[]
+15.7 +13.3 86 +15 +15 тепло 1007.1 1000.7
23 15.07 ЮВ 4-4
{5}
50 км 8/6 600 м
[]
+15.4 +12.6 83 +14 +14 тепло 1006.8 1000.5
00 16.07 ЮВ 4-5
{5}
50 км {ливн. осадки} 4/0 600 м
[Ci ing]
+14.8 +12.6 87 +14 +14 по сезону 1006.5 1000.1
01 16.07 ЮВ 5-6
{7}
50 км 5/5
[]
+15.0 +12.9 87 +14 +14 по сезону 1006.5 1000.1
02 16.07 ЮВ 4-4
{6}
50 км 9/0
[]
+14.8 +12.9 88 +14 +14 по сезону 1006.4 1000.0
03 16.07 ЮВ 4-6
{6}
50 км 9/9 300 м
[Ac und]
+15.4 +13.3 87 +14 +14 по сезону 1006.4 1000.0
04 16.07 Ю 5 40 км слаб. морось 9/9 300 м
[]
+15.4 +13.8 90 +14 +14 прохладно 1006.6 1000.2
05 16.07 ЮВ 5-7
{8}
45 км слаб. морось 9/0 1000 м
[]
+15.1 +12.5 84 +14 +14 прохладно 1006.5 1000.1
06 16.07 ЮВ 6-8
{8}
30 км слаб. дождь 9/1 600 м
[Sc As op]
+15.3 +12.8 85 +14 +14 прохладно 1006.5 1000.2 +14.7 +17.2 0.1
07 16.07 ЮВ 5-6
{8}
30 км слаб. ливневой дождь 5/4 1500 м
[]
+15.9 +13.5 86 +15 +17 холодно 1006.8 1000.4
08 16.07 В 4 45 км слаб. ливневой дождь 9/9 1500 м
[]
+15.6 +14.2 91 +15 +15 прохладно 1007.1 1000.8
09 16.07 В 4-6
{8}
30 км слаб. ливневой дождь 9/4 300 м
[As op]
+15.4 +14.2 93 +14 +16 холодно 1007.3 1001.0 2
10 16.07 В 6-9
{9}
18 км слаб. ливневой дождь 9/0 1500 м
[]
+16.8 +14.4 86 +16 +16 холодно 1007.1 1000.8 1
11 16.07 ЮВ 5 50 км в посл. час морось 9/9 2000 м
[]
+18.8 +13.5 71 +19 +20 прохладно 1007.0 1000.7
12 16.07 ЮВ 9-12
{12}
50 км осадки на расстоянии {ливн. осадки} 9/1 600 м
[Ac cuf Ci fib]
+20.3 +11.8 58 +22 +22 комфорт 1007.0 1000.8
14 16.07 ЮВ 5-10
{10}
45 км слаб. ливневой дождь 8/0 2000 м
[]
+15.1 +13.2 88 +14 +14 холодно 1008.8 1002.4 2
15 16.07 ЮВ 3-5
{8}
40 км осадки на расстоянии {гроза, ливн. осадки} 9/0 600 м
[Ac As]
+15.5 +12.9 84 +15 +17 холодно 1008.5 1002.2
16 16.07 В 4 50 км 6/6 2000 м
[]
+15.8 +13.2 85 +15 +16 прохладно 1008.9 1002.6
17 16.07 ЮВ 3 50 км 3/3 1500 м
[]
+16.2 +12.7 80 +16 +17 прохладно 1009.0 1002.6
18 16.07 СВ 2-3
{4}
50 км ясно +15.7 +13.8 88 +16 +16 прохладно 1009.2 1002.9 +13.8 +20.7 7
19 16.07 С 2-2
{3}
50 км ясно +14.8 +14.1 96 +14 +14 по сезону 1009.4 1003.0
20 16.07 С 3-4
{4}
50 км 3/3 2000 м
[]
+14.4 +13.7 96 +13 +13 прохладно 1009.2 1002.8
21 16.07 С 4-4
{5}
50 км 1/0 1500 м
[Ci fib]
+13.3 +13.1 99 +11 +11 холодно 1009.3 1002.9
22 16.07 СВ 4-6
{6}
50 км ясно +13.6 +12.6 94 +12 +12 по сезону 1009.4 1003.0
23 16.07 СВ 4-6
{6}
50 км ясно +13.3 +12.0 92 +12 +12 по сезону 1009.4 1003.0
00 17.07 СВ 4-6
{6}
50 км 1/0
[Ci fib]
+13.2 +11.3 88 +11 +11 по сезону 1009.5 1003.1
01 17.07 СВ 4 50 км ясно +12.4 +11.2 92 +10 +10 прохладно 1009.6 1003.2
02 17.07 СВ 4 50 км ясно +12.1 +10.8 92 +10 +10 прохладно 1009.5 1003.1
03 17.07 СВ 4-6
{6}
50 км 1/0
[Ci fib]
+13.0 +10.2 83 +11 +12 прохладно 1009.6 1003.2
04 17.07 СВ 3 50 км ясно +13.7 +10.4 80 +13 +14 прохладно 1009.7 1003.3
05 17.07 СВ 3 50 км ясно +15.0 +10.4 74 +14 +17 прохладно 1009.9 1003.5
06 17.07 С 4-5
{5}
50 км 1/0
[Ci fib]
+17.3 +11.4 68 +17 +21 по сезону 1009.7 1003.4 +12.0 +17.4
07 17.07 СВ 3-5
{5}
50 км ясно +18.9 +10.8 59 +20 +27 по сезону 1009.6 1003.3
08 17.07 СВ 5-7
{7}
50 км ясно +20.6 +10.3 52 +22 +28 комфорт 1009.5 1003.2
09 17.07 В 4-7
{8}
50 км 3/0 1000 м
[]
+21.9 +9.9 46 +23 +31 комфорт 1009.5 1003.3
10 17.07 В 3 45 км 5/5 1500 м
[]
+22.7 +9.2 42 +24 +30 комфорт 1009.4 1003.2
11 17.07 ЮВ 3 50 км 5/3 1500 м
[]
+21.7 +8.5 43 +23 +29 комфорт 1009.4 1003.2
12 17.07 Ю 4-6
{9}
40 км осадки на расстоянии 6/0 1500 м
[Ac cuf]
+21.3 +10.3 49 +23 +28 комфорт 1009.4 1003.2
13 17.07 ЮВ 3 50 км в посл. час дождь 9/9 1000 м
[]
+19.9 +9.8 52 +21 +22 комфорт 1009.8 1003.6
14 17.07 СЗ 3 50 км 10/10 1500 м
[]
+17.2 +13.0 76 +17 +17 прохладно 1010.4 1004.1
15 17.07 С 2-4
{5}
30 км осадки на расстоянии {ливн. осадки} 6/4 1500 м
[Ac cuf Ci ing]
+17.6 +12.6 72 +18 +20 по сезону 1010.3 1004.0
16 17.07 С 2 50 км 4/4
[]
+17.7 +13.5 76 +18 +20 по сезону 1010.4 1004.1
17 17.07 С 2 50 км ясно +19.7 +12.3 62 +22 +23 комфорт 1010.2 1003.9
18 17.07 СЗ 2-3
{3}
50 км {ливн. осадки} 4/1 1500 м
[Sc diur, vesp Ac cuf]
+17.8 +12.8 73 +18 +18 по сезону 1010.6 1004.3 +16.6 +23.3 0.3
19 17.07 С 2 45 км 8/8
[]
+16.4 +14.1 86 +16 +16 по сезону 1010.8 1004.5
20 17.07 С 4 50 км 9/9
[]
+16.1 +14.2 88 +15 +15 по сезону 1010.8 1004.4
21 17.07 С 4-4
{5}
50 км 1/0
[Ac lent]
+14.8 +13.3 91 +14 +14 по сезону 1010.6 1004.3
22 17.07 С 3-3
{4}
50 км ясно +14.1 +13.2 94 +13 +13 тепло 1010.8 1004.4
23 17.07 С 2 50 км ясно +13.4 +12.5 94 +13 +13 по сезону 1010.8 1004.4
00 18.07 СЗ 2-2
{3}
50 км 1/0
[Ac lent]
+11.4 +11.4 100 +10 +10 прохладно 1010.9 1004.5
01 18.07 СЗ 1 50 км ясно +11.4 +11.4 100 +11 +11 прохладно 1010.7 1004.2
02 18.07 С 2 50 км ясно +11.8 +11.7 99 +11 +11 прохладно 1010.8 1004.3
03 18.07 С 3-4
{4}
50 км местами туман поземный ясно +12.4 +11.6 95 +11 +11 прохладно 1010.9 1004.5
04 18.07 С 4 50 км ясно +13.7 +11.9 89 +12 +13 холодно 1010.8 1004.4
05 18.07 С 5 50 км ясно +15.2 +12.4 83 +14 +16 прохладно 1010.9 1004.5
06 18.07 С 4-6
{7}
50 км 1/0
[Ci fib]
+17.4 +12.7 74 +17 +21 по сезону 1010.8 1004.4 +11.3 +17.8
07 18.07 С 5 50 км ясно +18.7 +12.2 66 +19 +23 по сезону 1010.7 1004.4
08 18.07 СВ 5 45 км ясно +20.5 +12.1 59 +22 +28 комфорт 1010.4 1004.1
09 18.07 С 5-8
{8}
50 км 1/0 1000 м
[]
+21.9 +11.2 51 +24 +30 комфорт 1010.2 1003.9
10 18.07 С 5 45 км ясно +22.6 +10.2 45 +24 +31 комфорт 1010.1 1003.9
11 18.07 СЗ 5 50 км 1/1 1500 м
[]
+23.2 +10.4 44 +25 +31 комфорт 1009.9 1003.7
12 18.07 С 7-9
{11}
50 км 5/0 1500 м
[]
+23.9 +8.9 38 +25 +27 комфорт 1009.6 1003.4
13 18.07 С 6 50 км 1/1 1500 м
[]
+23.4 +9.7 42 +25 +29 комфорт 1009.6 1003.4
14 18.07 С 6 45 км 5/5 1500 м
[]
+24.0 +8.5 37 +25 +26 комфорт 1009.5 1003.3
15 18.07 С 7-9
{10}
50 км 3/0 1500 м
[]
+23.3 +9.3 41 +25 +26 комфорт 1009.4 1003.2
16 18.07 С 7 50 км ясно +23.7 +8.3 37 +24 +25 комфорт 1009.2 1003.0
17 18.07 С 5 50 км 3/3 1500 м
[]
+22.8 +8.9 41 +24 +25 комфорт 1009.4 1003.2
18 18.07 С 4-5
{9}
50 км ясно +21.8 +9.1 44 +23 +23 комфорт 1009.5 1003.2 +17.4 +25.0
19 18.07 С 3 50 км ясно +20.4 +9.1 48 +22 +22 комфорт 1009.5 1003.3
20 18.07 СЗ 4-5
{5}
50 км ясно +18.9 +8.4 50 +19 +19 тепло 1009.8 1003.5
21 18.07 СЗ 5-6
{6}
50 км 1/0 1500 м
[Ci fib]
+17.5 +8.3 55 +17 +17 по сезону 1010.0 1003.6
22 18.07 С 5-6
{7}
50 км ясно +16.8 +8.7 59 +16 +16 тепло 1010.0 1003.7
23 18.07 С 4 50 км ясно +15.7 +9.2 65 +15 +15 тепло 1010.3 1003.9
00 19.07 С 5-6
{6}
50 км 1/0
[Cs]
+14.8 +9.9 72 +13 +13 по сезону 1010.2 1003.8
01 19.07 С 4 50 км ясно +14.5 +10.0 74 +13 +13 по сезону 1010.2 1003.8
02 19.07 С 5-6
{6}
50 км ясно +13.9 +9.8 76 +12 +12 прохладно 1010.2 1003.8
03 19.07 С 5-6
{6}
50 км 1/0
[Ac As Cs]
+14.2 +9.9 75 +13 +13 по сезону 1010.5 1004.1
04 19.07 С 5 50 км ясно +15.4 +10.2 71 +14 +15 прохладно 1010.4 1004.1
05 19.07 С 5 50 км ясно +16.7 +11.3 70 +16 +18 по сезону 1010.2 1003.8
06 19.07 С 6-9
{9}
50 км 1/0
[Ac trans]
+19.1 +12.5 66 +20 +22 тепло 1010.1 1003.8 +13.9 +21.8
07 19.07 С 7 50 км ясно +20.2 +11.8 58 +22 +24 комфорт 1009.9 1003.7
08 19.07 С 7 40 км ясно +21.5 +11.3 52 +23 +26 комфорт 1010.0 1003.7
09 19.07 С 8-11
{11}
50 км 1/0 1000 м
[]
+21.8 +9.4 45 +23 +25 комфорт 1009.8 1003.6
10 19.07 С 7 45 км 3/3 1500 м
[]
+23.0 +9.9 43 +25 +27 комфорт 1009.9 1003.7
11 19.07 С 8 45 км 1/1 1500 м
[]
+23.3 +8.4 39 +25 +27 комфорт 1009.8 1003.6
12 19.07 С 7-11
{11}
50 км 4/0 1500 м
[Ci fib]
+24.6 +8.7 36 +25 +28 комфорт 1009.8 1003.6
13 19.07 С 7 50 км 4/4 1500 м
[]
+24.0 +8.1 36 +24 +26 комфорт 1009.8 1003.6
14 19.07 С 7-8
{10}
50 км 8/0 2000 м
[]
+24.0 +7.8 35 +24 +25 комфорт 1009.9 1003.7
15 19.07 С 5-7
{9}
50 км 5/0 1500 м
[]
+24.1 +7.9 35 +24 +26 комфорт 1010.0 1003.8
16 19.07 СЗ 6 50 км 4/4 2000 м
[]
+24.3 +7.5 34 +25 +25 комфорт 1009.9 1003.7
17 19.07 С 5 50 км 8/8 2000 м
[]
+24.4 +7.7 34 +25 +25 комфорт 1010.0 1003.8
18 19.07 С 4-6
{8}
50 км 9/9 2000 м
[]
+23.2 +7.8 37 +24 +24 комфорт 1010.2 1004.0 +19.0 +24.8
19 19.07 СЗ 3 50 км 4/4 2000 м
[]
+21.8 +7.6 40 +23 +23 комфорт 1010.5 1004.2
20 19.07 С 2-3
{4}
50 км 1/0 2000 м
[]
+19.2 +8.6 50 +21 +21 комфорт 1010.8 1004.5
21 19.07 СЗ 4-5
{5}
50 км ясно +18.5 +8.3 51 +19 +19 тепло 1011.2 1004.9
22 19.07 С 4 50 км ясно +16.9 +8.5 58 +16 +16 тепло 1011.5 1005.2
23 19.07 С 4-4
{5}
50 км ясно +15.5 +8.5 63 +15 +15 тепло 1012.0 1005.6
00 20.07 С 3-3
{4}
50 км ясно +14.3 +9.1 71 +13 +13 по сезону 1012.2 1005.8
01 20.07 СЗ 3-3
{3}
50 км ясно +12.7 +9.6 81 +11 +11 холодно 1012.5 1006.0
02 20.07 СЗ 2-2
{3}
50 км ясно +12.6 +9.5 81 +12 +12 холодно 1012.7 1006.2
03 20.07 50 км ясно +13.2 +9.9 80 1013.1 1006.7
04 20.07 СЗ 3 50 км ясно +14.6 +10.2 75 +14 +15 прохладно 1013.2 1006.8
05 20.07 СЗ 4 50 км ясно +17.1 +11.3 69 +17 +19 по сезону 1013.3 1006.9
06 20.07 С 3-5
{5}
50 км 1/0
[Ci fib]
+20.0 +12.2 61 +22 +27 комфорт 1013.7 1007.4 +12.3 +23.2
07 20.07 С 5 50 км ясно +21.1 +12.0 56 +23 +27 комфорт 1013.8 1007.5
08 20.07 С 4-8
{8}
50 км 1/1 1000 м
[]
+22.0 +10.8 49 +24 +30 комфорт 1013.9 1007.7
09 20.07 С 4-8
{8}
50 км 3/0 1000 м
[]
+22.6 +10.1 45 +24 +31 комфорт 1014.3 1008.0
10 20.07 СЗ 3 50 км 3/3 1500 м
[]
+23.3 +10.3 44 +25 +33 комфорт 1014.5 1008.2
11 20.07 С 4-5
{8}
50 км 4/0 1500 м
[]
+24.2 +9.6 40 +25 +29 комфорт 1014.7 1008.5
12 20.07 СЗ 3-6
{7}
50 км 5/0 1500 м
[]
+24.8 +9.8 39 +26 +33 жарко 1014.8 1008.6
13 20.07 С 3 50 км 1/1 2000 м
[]
+24.9 +9.7 38 +26 +33 жарко 1014.9 1008.7
14 20.07 С 4 45 км 5/5 1500 м
[]
+26.1 +9.4 35 +27 +29 жарко 1014.9 1008.7
15 20.07 С 3-6
{6}
50 км 4/0 1500 м
[]
+26.1 +9.0 34 +26 +30 жарко 1014.7 1008.6
16 20.07 С 3 50 км 4/4 2000 м
[]
+24.8 +9.1 37 +25 +27 комфорт 1014.7 1008.5
17 20.07 С 1 50 км 1/1 2000 м
[]
+24.8 +9.5 38 +26 +27 жарко 1015.0 1008.8
18 20.07 ЮЗ 2-3
{3}
50 км 8/8 2000 м
[]
+23.3 +12.7 51 +26 +26 жарко 1015.2 1008.9 +20.0 +26.8
19 20.07 ЮЗ 2 50 км 9/9 2000 м
[]
+21.8 +13.8 60 +25 +25 комфорт 1015.5 1009.3
20 20.07 Ю 2-2
{2}
50 км ясно +19.6 +13.9 70 +22 +22 комфорт 1015.9 1009.6
21 20.07 штиль 0-1
{1}
50 км 1/0 1500 м
[]
+18.4 +13.9 75 +19 +19 тепло 1016.4 1010.0
22 20.07 СЗ 1 50 км ясно +16.9 +14.0 83 +18 +18 тепло 1016.6 1010.2
23 20.07 С 2-2
{2}
50 км ясно +15.4 +13.4 88 +15 +15 тепло 1016.9 1010.5
00 21.07 С 1-1
{2}
<100 м ясно +14.2 +13.0 92 +14 +14 по сезону 1017.0 1010.6
01 21.07 С 2-2
{2}
50 км ясно +15.5 +11.6 78 +15 +15 по сезону 1017.0 1010.6
02 21.07 С 2 50 км ясно +14.9 +11.4 80 +15 +15 по сезону 1017.0 1010.6
03 21.07 С 1-2
{3}
50 км ясно +15.3 +11.5 78 +16 +16 по сезону 1017.1 1010.7
05 21.07 С 1 50 км ясно +20.6 +12.2 59 +24 +28 комфорт 1016.9 1010.6
06 21.07 В 1-2
{2}
50 км ясно +23.1 +12.6 52 +26 +32 жарко 1017.3 1011.0 +14.0 +23.3
07 21.07 Ю 1 50 км ясно +23.7 +10.9 44 +25 +34 комфорт 1017.2 1010.9
08 21.07 СВ 1 50 км ясно +25.1 +10.4 40 +26 +38 жарко 1017.1 1010.8
09 21.07 ЮВ 2-4
{4}
50 км 1/0 1500 м
[]
+25.7 +10.7 39 +27 +38 жарко 1017.1 1010.9
10 21.07 Ю 2 50 км 4/4 1500 м
[]
+26.6 +10.1 35 +27 +35 жарко 1017.0 1010.8
11 21.07 Ю 3 40 км 6/6 1500 м
[]
+26.3 +9.9 36 +27 +31 жарко 1016.9 1010.7
12 21.07 Ю 4-6
{7}
50 км 3/0 1500 м
[]
+26.7 +10.3 36 +27 +34 жарко 1016.9 1010.7

 

Местоположение метеостанции Хельсинки (Финляндия): широта 60.33 долгота 24.96 высота над уровнем моря 51 м.

В архиве по умолчанию представлена погода в Хельсинки за последнюю неделю. Архивные данные за месяц целиком и за предыдущие месяцы, начиная с января 2011 года, Вы можете получить, выбрав интересующий диапазон дат из раскрывающегося списка и нажав кнопку "Ввод!".


*Определитесь, кто Вы:
робот инопланетянин человек

Внимание! Время в таблицах - всемирное. Для получения местного времени необходимо прибавить поправку, которая равна 1 ч.

Смотрите также архив погоды в соседних городах и на ближайших метеорологических станциях:

Погода в Хельсинки университете (Финляндия) (14 км)
Погода в Хельсинки Кайсаниеми (Финляндия) (17 км)
Погода в Эспо Тапиола (Финляндия) (19 км)
Погода в Эспо Нууксио (Финляндия) (22 км)
Погода на Острове Хармая (Финляндия) (26 км)
Погода в Нурмиярви (Финляндия) (26 км)
Погода в Хювинкяа (Финляндия) (31 км)
Погода в Вихти (Финляндия) (32 км)
Погода в Килпилахти (Финляндия) (33 км)
Погода на Острове Синго (Финляндия) (36 км)

Пояснения к столбцам:

Ветер - указаны скорость ветра в м/с - средняя за 10 мин, порывы в срок и между сроками (в фигурных скобках) и направление, откуда дует ветер: С - северный, СВ - северо-восточный, В - восточный, ЮВ - юго-восточный, Ю - южный, ЮЗ - юго-западный, З - западный, СЗ - северо-западный.
Видимость - горизонтальная дальность видимости в метрах или километрах. При видимости от 1 до 10 км при отсутствии осадков обычно наблюдается дымка, при ухудшении видимости до 1 км и менее - туман. В сухую погоду видимость может ухудшаться дымом, пылью или мглою.
Явления - указаны атмосферные явления, наблюдавшиеся в срок или в последний час перед сроком; фигурными скобками обозначены явления, наблюдавшиеся между сроками (за 1-3 часа до срока); квадратными скобками обозначены град или гололедные отложения с указанием их диаметра в мм.
Облачность - указаны через наклонную черту общая и нижняя облачность в баллах и высота нижней границы облаков в метрах; квадратными скобками обозначены формы облаков: Ci - перистые, Cs - перисто-слоистые, Cc - перисто-кучевые, Ac - высококучевые, As - высокослоистые, Sc - слоисто-кучевые, Ns - слоисто-дождевые, Cu - кучевые, Cb - кучево-дождевые. Подробнее классификацию облаков см. в Атласе облаков (PDF).
T - Температура воздуха - температура, измеренная на высоте 2 м над землей.
Td - Температура точки росы - температура, при понижении до которой содержащийся в воздухе водяной пар достигнет насыщения.
f - Относительная влажность воздуха - влажноcть воздуха, измеренная на высоте 2 м над землей.
Te - Эффективная температура - температура, которую ощущает одетый по сезону человек в тени. Характеристика душности погоды. При расчете учитывается влияние влажности воздуха и скорости ветра на теплоощущения человека.
Tes - Эффективная температура на солнце - температура, которую ощущает человек, с поправкой на солнечный нагрев. Характеристика знойности погоды. Зависит от высоты солнца над горизонтом, облачности и скорости ветра. Ночью, в пасмурную погоду, а также при ветре 12 м/с и более поправка равна нулю.
P - Атмосферное давление - приведенное к уровню моря атмосферное давление.
Po - Атмосферное давление - измеренное на уровне метеостанции атмосферное давление.
Tmin - Минимальная температура - минимум температуры воздуха на высоте 2 м над землей.
Tmax - Максимальная температура - максимум температуры воздуха на высоте 2 м над землей.
R - Количество осадков - Количество выпавших осадков за период времени, мм. При наведении курсора мыши на число - период времени, за который выпало указанное количество осадков.
R24 - Количество осадков - Количество выпавших осадков за 24 часа, мм.
S - Снежный покров - Высота снежного покрова, см. При наведении курсора мыши на число - состояние снежного покрова и степень покрытия местности в баллах.